Location: Zagreb
(45.8000°N, 16.0000°E)
Time: 15:19:52
(UTC+02:00)

Transit 2A Rocket - Pass Details

Date: 11 August 2022
Orbit: 593 x 907 km, 66.7° (Epoch: 25 September)

Event Time Altitude Azimuth Distance (km) Brightness Sun altitude
Rises 03:22:35 0° 332° (NNW) 2,847 8.3 -21.1°
Reaches altitude 10° 03:24:58 10° 342° (NNW) 1,956 7.6 -20.8°
Maximum altitude 03:28:59 34° 49° (NE) 1,022 6.3 -20.4°
Drops below altitude 10° 03:33:11 10° 115° (ESE) 2,050 7.4 -19.9°
Sets 03:35:43 0° 124° (SE) 3,006 8.2 -19.6°
